This is the latest recevied weather packets stored in our database for station/object KA7KDX-4. If no packets are shown the sender has not sent any weather packets the latest 10 day(s).
| Time | Temp. | Humidity | Pressure | Rain* | Wind** | Luminosity | Snow |
|---|---|---|---|---|---|---|---|
| 1777991705 | 11.11° C | 59% | 1007.1 hPa | 0 mm | - | - | - |
| 1777991405 | 11.11° C | 59% | 1007 hPa | 0 mm | - | - | - |
| 1777991105 | 11.11° C | 60% | 1007 hPa | 0 mm | - | - | - |
| 1777990806 | 11.11° C | 60% | 1006.9 hPa | 0 mm | - | - | - |
| 1777990507 | 11.11° C | 59% | 1006.9 hPa | 0 mm | - | - | - |
| 1777989906 | 11.67° C | 59% | 1006.7 hPa | 0 mm | - | - | - |
| 1777989605 | 11.67° C | 56% | 1006.5 hPa | 0 mm | - | - | - |
| 1777989305 | 11.67° C | 55% | 1006.4 hPa | 0 mm | - | - | - |
| 1777989005 | 11.67° C | 55% | 1006.4 hPa | 0 mm | - | - | - |
| 1777988705 | 11.67° C | 54% | 1006.4 hPa | 0 mm | - | - | - |
| 1777988405 | 11.11° C | 55% | 1006.4 hPa | 0 mm | - | - | - |
| 1777988106 | 11.11° C | 59% | 1006.4 hPa | 0 mm | - | - | - |
| 1777987806 | 11.11° C | 60% | 1006.5 hPa | 0 mm | - | - | - |
| 1777987506 | 11.11° C | 63% | 1006.6 hPa | 0 mm | - | - | - |
| 1777987206 | 11.11° C | 63% | 1006.5 hPa | 0.25 mm | - | - | - |
| 1777986905 | 11.67° C | 58% | 1006.1 hPa | 0.25 mm | - | - | - |
| 1777986605 | 12.22° C | 54% | 1005.7 hPa | 0.25 mm | - | - | - |
| 1777986305 | 12.78° C | 51% | 1005.4 hPa | 0.25 mm | - | - | - |
| 1777986006 | 12.78° C | 49% | 1005.1 hPa | 0 mm | - | - | - |
| 1777985705 | 12.78° C | 51% | 1005 hPa | 0 mm | - | - | - |
| 1777985405 | 12.78° C | 54% | 1005.1 hPa | 0 mm | - | - | - |
| 1777985106 | 12.78° C | 56% | 1005.1 hPa | 0 mm | - | - | - |
| 1777984806 | 12.78° C | 55% | 1005 hPa | 0 mm | - | - | - |
| 1777984506 | 12.78° C | 56% | 1005 hPa | 0 mm | - | - | - |
| 1777984205 | 12.78° C | 56% | 1005 hPa | 0 mm | - | - | - |
* Rain latest hour (hover to see other rain measurements)
** Current wind speed in m/s (hover to see current wind gust speed)